星链-37360(STARLINK-37360)

导读

STARLINK-37360(NORAD编号68901)是美国太空探索技术公司(SpaceX)研发运营的星链(Starlink)卫星,采用Starlink v1.5平台,属于SpaceX星链巨型低轨互联网星座的一员。该卫星运行在近地轨道,近地点约570千米,远地点约574千米,轨道倾角接近70度,周期约96分钟,目前仍处于工作状态,为全球提供高速卫星互联网接入服务,尤其覆盖传统网络基础设施匮乏的偏远地区。

Basic Information
目录编号:
68901
目录名称:
STARLINK-37360
国际标识:
2026-097G
轨道中心:
EARTH
卫星名称:
星链-37360
卫星全名:
星链-37360(STARLINK-37360)
卫星状态:
在轨 (已飞行127 天)
发射日期:
2026-04-30 UTC
国别 :
美国 (US)
星等 :
--
Orbit Information
数据来源 国际轨道数据 AOE轨道数据
星历时间 2026-09-03T20:27:45+0800
22小时前
查看轨道信息
2026-09-01T02:00:00+0800
3天前
查看轨道信息
半长轴 6843.684km 6843.748km
偏心率 0.0001923 0.0001431
轨道倾角 97.286° 97.285°
近地点辐角 80.989° 84.332°
升交点赤经 80.963° 78.235°
平近点角 279.157° 118.317°
近地点 464.23km 464.631km
远地点 466.864km 466.591km
周期 93.906分钟 93.908分钟
每日圈数 15.334438 15.334225
Detailed Information
固有亮度:
5
最大亮度:
2.5
卫星平台:
Starlink V1.0
覆盖范围:
全球
运营商:
太空探索技术公司
运营商所在国:
美国
制造商(研发单位):
太空探索技术公司
制造商所在国:
美国
使用方式:
暂无
Satellite Introduction
Starlink 计划是 SpaceX 推出的全球卫星互联网项目,通过发射低轨道卫星,为全球尤其是偏远地区提供高速、低延迟的互联网服务。自 2019 年起,Starlink 已部署数千颗卫星,旨在缩小全球数字鸿沟,推动互联网普及。该项目还为军事、航空等行业提供通信支持,带来广泛经济效益。
2D Orbit Map
3D Orbit Map
Orbit Altitude Analysis Chart
Orbit Inclination Analysis Chart
Orbit Comprehensive Analysis Chart
View Comprehensive Chart
Conjunction Data List
Event ID Objects TCA Miss Dist (km) Collision Risk Probability Collision Risk Index (CRI) Action
CDM_260905-115405-503406-890121
2026-09-05T
11:54:45+0000
2.414 km
极远距离
1.817069E-6 低风险 0.4
CDM_260905-010304-839906-890121
2026-09-05T
01:03:36+0000
2.915 km
极远距离
1.335019E-6 低风险 0.38
CDM_260906-130306-625006-890121
2026-09-06T
13:03:32+0000
2.979 km
极远距离
1.101303E-6 低风险 0.36